User: anonymous   Login
Location: Hurecourt
(47.9030°N, 6.0653°E)
Time: 02:19:50
(UTC+00:00)
Language:

Cosmos 614 Rocket - Orbit

View from above orbital plane
View from above orbital plane
View from above satellite
View from above satellite

Ground track
Ground track

The orbit data is extracted from the following two-line orbital elements,

1  6966U 73098B   20272.83541928  .00000042  00000-0  20308-4 0  9990
2  6966  74.0564 156.8495 0021691 192.8916 167.1689 14.43050193458575
Epoch (UTC): 28 September 2020 20:03:00
Eccentricity: 0.0021691
inclination: 74.0564°
perigee height: 733 km
apogee height: 764 km
right ascension of ascending node: 156.8495°
argument of perigee: 192.8916°
revolutions per day: 14.43050193
mean anomaly at epoch: 167.1689°
orbit number at epoch: 45857

The dashed part of the orbit path shows where the satellite is in the earth's shadow,  

DLR